Ellensburg, WA

10:21 AM PST on December 07, 2016 (GMT -0800)
Bowers

Weather History for KELN - August, 2014

Change the Weather History Date:

Wednesday, August 6, 2014

  Actual Average (KYKM) Record (KYKM)
Temperature  
Mean Temperature 76 °F 72 °F  
Max Temperature 88 °F 89 °F 105 °F (1972)
Min Temperature 66 °F 54 °F 38 °F (2002)
Degree Days  
Heating Degree Days 0 0  
Month to date heating degree days 0  
Since 1 June heating degree days 119  
Since 1 July heating degree days 21  
Cooling Degree Days 12 7  
Month to date cooling degree days 42  
Year to date cooling degree days 322  
Since 1 June cooling degree days 302  
Growing Degree Days 26 (Base 50)    
Moisture  
Dew Point 49 °F    
Average Humidity 42    
Maximum Humidity 57    
Minimum Humidity 26    
Precipitation  
Precipitation 0.00 in 0.00 in 0.24 in (1953)
Month to date precipitation 0.03  
Year to date precipitation 4.54  
Snow  
Snow 0.00 in 0.00 in 0.00 in (2002)
Month to date snowfall 0.0  
Year to date snowfall 8.6  
Since 1 July snowfall 0.0  
Snow Depth -    
Sea Level Pressure  
Sea Level Pressure 29.94 in    
Wind  
Wind Speed 24 mph (NW)    
Max Wind Speed 30 mph    
Max Gust Speed 38 mph    
Visibility 10 miles    
Events      
T = Trace of Precipitation, MM = Missing Value Source: NWS Daily Summary

Daily Weather History Graph

Daily Weather History Graph

Search for Another Location

Airport or City:

Trip Planner

Search our weather history database for the weather conditions in past years. The results will help you decide how hot, cold, wet, or windy it might be!

Date:

Astronomy

Aug. 06, 2014 Rise Set
Actual Time 5:47 AM PDT 8:27 PM PDT
Civil Twilight 5:13 AM PDT 9:01 PM PDT
Nautical Twilight 4:29 AM PDT 9:45 PM PDT
Astronomical Twilight 3:37 AM PDT 10:36 PM PDT
Moon 4:52 PM PDT (8/6) 1:25 AM PDT (8/6)
Length of Visible Light 15h 48m
Length of Day
14h 39m
Waxing Gibbous, 78% of the Moon is Illuminated
Aug 6
Waxing Gibbous
Aug 10
Full
Aug 17
Last Quarter
Aug 25
New
Sep 2
First Quarter

Hourly Weather History & Observations

Time (PDT) Temp. Dew Point Humidity Pressure Visibility Wind Dir Wind Speed Gust Speed Precip Events Conditions
12:53 AM 69.1 °F 44.1 °F 40% 29.92 in 10.0 mi NW 23.0 mph - N/A   Clear
1:53 AM 68.0 °F 46.9 °F 47% 29.93 in 10.0 mi NNW 23.0 mph - N/A   Clear
2:53 AM 68.0 °F 48.0 °F 49% 29.93 in 10.0 mi NNW 21.9 mph - N/A   Clear
3:53 AM 66.9 °F 48.9 °F 52% 29.94 in 10.0 mi NW 25.3 mph 35.7 mph N/A   Clear
4:53 AM 66.9 °F 50.0 °F 54% 29.94 in 10.0 mi NW 28.8 mph 38.0 mph N/A   Clear
5:53 AM 66.0 °F 50.0 °F 56% 29.96 in 10.0 mi NW 21.9 mph 32.2 mph N/A   Clear
6:53 AM 66.9 °F 51.1 °F 57% 29.97 in 10.0 mi NW 19.6 mph 28.8 mph N/A   Clear
7:53 AM 70.0 °F 52.0 °F 53% 29.98 in 10.0 mi NW 25.3 mph 36.8 mph N/A   Partly Cloudy
8:53 AM 73.0 °F 52.0 °F 48% 29.98 in 10.0 mi NW 29.9 mph 38.0 mph N/A   Clear
10:53 AM 80.1 °F 52.0 °F 38% 29.96 in 10.0 mi NW 26.5 mph 38.0 mph N/A   Clear
12:53 PM 84.9 °F 51.1 °F 31% 29.96 in 10.0 mi WNW 26.5 mph 33.4 mph N/A   Clear
1:53 PM 87.1 °F 50.0 °F 28% 29.94 in 10.0 mi NW 21.9 mph 32.2 mph N/A   Clear
2:53 PM 87.1 °F 48.0 °F 26% 29.93 in 10.0 mi NW 26.5 mph 35.7 mph N/A   Clear
3:53 PM 87.1 °F 48.9 °F 27% 29.93 in 10.0 mi WNW 26.5 mph 32.2 mph N/A   Clear
4:53 PM 84.9 °F 48.0 °F 28% 29.92 in 10.0 mi NW 28.8 mph 38.0 mph N/A   Clear
5:53 PM 82.9 °F 48.0 °F 29% 29.91 in 10.0 mi NW 28.8 mph 35.7 mph N/A   Clear
6:53 PM 79.0 °F 48.0 °F 34% 29.92 in 10.0 mi NW 24.2 mph 33.4 mph N/A   Clear
7:53 PM 75.0 °F 48.9 °F 40% 29.94 in 10.0 mi NW 19.6 mph 31.1 mph N/A   Clear
8:53 PM 71.1 °F 48.9 °F 45% 29.94 in 10.0 mi NW 21.9 mph - N/A   Clear
9:53 PM 70.0 °F 50.0 °F 49% 29.94 in 10.0 mi NW 25.3 mph 33.4 mph N/A   Clear
10:53 PM 69.1 °F 50.0 °F 51% 29.94 in 10.0 mi NW 25.3 mph 32.2 mph N/A   Clear
11:53 PM 68.0 °F 50.0 °F 52% 29.94 in 10.0 mi NW 20.7 mph 28.8 mph N/A   Clear